Location: McFarlands Corners
(41.4117°N, 81.3382°W)
Time: 13:11:20
(UTC+00:00)

Explorer 7 - Pass Details

Date: 22 February 2026
Orbit: 430 x 541 km, 50.2° (Epoch: 12 March)

Event Time Altitude Azimuth Distance (km) Brightness Sun altitude
Rises 00:47:49 0° 301° (WNW) 2,525 11.3 -19.7°
Reaches altitude 10° 00:49:56 10° 300° (WNW) 1,664 10.2 -20.1°
Maximum altitude 00:53:42 77° 215° (SW) 514 6.6 -20.8°
Enters shadow 00:54:11 65° 154° (SSE) 553 6.6 -20.8°
Drops below altitude 10° 00:57:37 10° 129° (SE) 1,725 - -21.5°
Sets 00:59:51 0° 128° (SE) 2,628 - -21.9°
